Location: ??
(34.7707°N, 135.6540°E)
Time: 07:51:04
(UTC+00:00)

STARLINK-1161 - Pass Details

Date: 09 April 2020
Orbit: 548 x 551 km, 53.0° (Epoch: 26 May)

Event Time Altitude Azimuth Distance (km) Brightness Sun altitude
Exits shadow 19:50:06 - 221° (SW) 1,967 5.9 -9.3°
Reaches altitude 10° 19:50:30 10° 220° (SW) 1,804 5.7 -9.2°
Maximum altitude 19:54:36 80° 135° (SE) 556 3.7 -8.4°
Drops below altitude 10° 19:58:43 10° 48° (NE) 1,812 7.4 -7.6°
Sets 20:00:57 0° 47° (NE) 2,706 8.4 -7.1°
